Location: Berkeley
(37.8716°N, 122.2727°W)
Time: 11:01:18
(UTC-07:00)

Envisat - Pass Details

Date: 28 April 2024
Orbit: 762 x 764 km, 98.3° (Epoch: 29 May)

Event Time Altitude Azimuth Distance (km) Brightness Sun altitude
Rises 05:17:46 0° 1° (N) 3,234 6.7 -11.3°
Reaches altitude 10° 05:20:18 10° 351° (N) 2,304 5.7 -10.9°
Maximum altitude 05:24:41 30° 291° (WNW) 1,332 3.9 -10.1°
Enters shadow 05:28:47 11° 233° (SW) 2,195 4.7 -9.4°
